Location: Invercargill
(46.4000°S, 168.3500°E)
Time: 10:09:29
(UTC+12:00)

Cosmos 1356 - Pass Details

Date: 14 May 2021
Orbit: 437 x 442 km, 81.1° (Epoch: 15 June)

Event Time Altitude Azimuth Distance (km) Brightness Sun altitude
Rises 18:21:24 0° 9° (N) 2,426 7.2 -9.8°
Reaches altitude 10° 18:23:31 10° 17° (NNE) 1,566 6.1 -10.2°
Maximum altitude 18:26:41 36° 85° (E) 724 4.0 -10.7°
Drops below altitude 10° 18:29:55 10° 153° (SSE) 1,592 5.8 -11.2°
Enters shadow 18:30:34 - 156° (SSE) 1,849 6.1 -11.4°
